^^
Station Historical Data
Daily Summary for November 18, 2021 Units:  English    Metric   Both
Daily Weekly Monthly Yearly
  High: Low: Average:
Temperature: 43.8 °F 34.7 °F 39 °F
Dew Point: 41.6 °F 26.3 °F 30.1 °F
Humidity: 93% 61% 71%
Wind Speed: 11mph 4mph 7.6mph
Wind Gust: 19mph - -
Wind- - West
Pressure: 30.06 in 29.83 in -
Precipitation: 0.00 in    
 
 
Tabular Data for November 18, 2021
Time Temperature Dew Point Pressure Wind Wind Speed Wind Gust Humidity Rainfall Rate (Hourly) solar
00:00 43.5 °F 41.6 °F 29.84 in WNW 4 mph 4 mph 93% 0.00 in 0 W/m2
00:05 43.5 °F 41.6 °F 29.84 in West 5 mph 5 mph 93% 0.00 in 0 W/m2
00:10 43.4 °F 41.5 °F 29.84 in SW 5 mph 5 mph 93% 0.00 in 0 W/m2
00:15 43.5 °F 41.6 °F 29.84 in WNW 5 mph 8 mph 93% 0.00 in 0 W/m2
00:20 43.5 °F 41.3 °F 29.84 in West 4 mph 4 mph 92% 0.00 in 0 W/m2
00:25 43.5 °F 41.3 °F 29.84 in West 4 mph 11 mph 92% 0.00 in 0 W/m2
00:30 43.5 °F 41.3 °F 29.83 in WNW 5 mph 5 mph 92% 0.00 in 0 W/m2
00:35 43.5 °F 41 °F 29.83 in WSW 5 mph 6 mph 91% 0.00 in 0 W/m2
00:40 43.4 °F 40.7 °F 29.83 in SSW 4 mph 4 mph 90% 0.00 in 0 W/m2
00:45 43.5 °F 40.5 °F 29.83 in WSW 4 mph 4 mph 89% 0.00 in 0 W/m2
00:50 43.5 °F 40.2 °F 29.83 in West 4 mph 4 mph 88% 0.00 in 0 W/m2
00:55 43.5 °F 39.9 °F 29.84 in WNW 5 mph 6 mph 87% 0.00 in 0 W/m2
01:00 43.5 °F 39.6 °F 29.84 in West 5 mph 5 mph 86% 0.00 in 0 W/m2
01:05 43.6 °F 39.4 °F 29.83 in NW 5 mph 5 mph 85% 0.00 in 0 W/m2
01:10 43.6 °F 39.1 °F 29.84 in West 4 mph 5 mph 84% 0.00 in 0 W/m2
01:15 43.6 °F 38.8 °F 29.84 in NW 4 mph 11 mph 83% 0.00 in 0 W/m2
01:20 43.7 °F 38.9 °F 29.84 in SW 5 mph 5 mph 83% 0.00 in 0 W/m2
01:25 43.8 °F 38.3 °F 29.84 in SW 5 mph 7 mph 81% 0.00 in 0 W/m2
01:30 43.8 °F 38 °F 29.84 in WSW 6 mph 7 mph 80% 0.00 in 0 W/m2
01:35 43.7 °F 37 °F 29.84 in WNW 6 mph 10 mph 77% 0.00 in 0 W/m2
01:40 43.7 °F 36.6 °F 29.85 in WSW 7 mph 7 mph 76% 0.00 in 0 W/m2
01:45 43.8 °F 37.1 °F 29.84 in NW 6 mph 7 mph 77% 0.00 in 0 W/m2
01:50 43.8 °F 37.4 °F 29.85 in WNW 5 mph 5 mph 78% 0.00 in 0 W/m2
01:55 43.8 °F 37.4 °F 29.85 in SSW 5 mph 5 mph 78% 0.00 in 0 W/m2
02:00 43.7 °F 37 °F 29.85 in WSW 5 mph 7 mph 77% 0.00 in 0 W/m2
02:05 43.6 °F 36.2 °F 29.85 in WSW 6 mph 7 mph 75% 0.00 in 0 W/m2
02:10 43.6 °F 36.5 °F 29.85 in West 5 mph 10 mph 76% 0.00 in 0 W/m2
02:15 43.6 °F 35.5 °F 29.85 in West 6 mph 10 mph 73% 0.00 in 0 W/m2
02:20 43.6 °F 35.5 °F 29.85 in WNW 7 mph 8 mph 73% 0.00 in 0 W/m2
02:30 43.5 °F 35.4 °F 29.85 in West 5 mph 5 mph 73% 0.00 in 0 W/m2
02:35 43.4 °F 35.7 °F 29.85 in West 4 mph 11 mph 74% 0.00 in 0 W/m2
02:40 43.4 °F 35.7 °F 29.85 in WNW 5 mph 5 mph 74% 0.00 in 0 W/m2
02:45 43.3 °F 34.9 °F 29.85 in WSW 7 mph 12 mph 72% 0.00 in 0 W/m2
02:50 43.1 °F 34.3 °F 29.86 in West 6 mph 6 mph 71% 0.00 in 0 W/m2
02:55 43.1 °F 34 °F 29.86 in SW 8 mph 8 mph 70% 0.00 in 0 W/m2
03:00 43 °F 34.2 °F 29.85 in WNW 7 mph 12 mph 71% 0.00 in 0 W/m2
03:05 43 °F 34.2 °F 29.86 in WNW 6 mph 12 mph 71% 0.00 in 0 W/m2
03:10 42.9 °F 34.1 °F 29.86 in NW 6 mph 6 mph 71% 0.00 in 0 W/m2
03:15 42.8 °F 33.7 °F 29.86 in SW 7 mph 11 mph 70% 0.00 in 0 W/m2
03:20 42.7 °F 33.9 °F 29.86 in West 8 mph 10 mph 71% 0.00 in 0 W/m2
03:25 42.6 °F 33.9 °F 29.85 in WSW 7 mph 10 mph 71% 0.00 in 0 W/m2
03:30 42.4 °F 33.7 °F 29.87 in WSW 7 mph 10 mph 71% 0.00 in 0 W/m2
03:35 42.2 °F 33.1 °F 29.87 in WSW 9 mph 16 mph 70% 0.00 in 0 W/m2
03:40 42 °F 32.9 °F 29.88 in SW 9 mph 9 mph 70% 0.00 in 0 W/m2
03:45 41.9 °F 32.5 °F 29.87 in West 8 mph 9 mph 69% 0.00 in 0 W/m2
03:50 41.9 °F 32.8 °F 29.86 in West 7 mph 7 mph 70% 0.00 in 0 W/m2
03:55 41.8 °F 33.1 °F 29.86 in West 6 mph 7 mph 71% 0.00 in 0 W/m2
04:00 41.8 °F 33.4 °F 29.87 in WNW 6 mph 6 mph 72% 0.00 in 0 W/m2
04:05 41.7 °F 33 °F 29.87 in West 6 mph 13 mph 71% 0.00 in 0 W/m2
04:10 41.5 °F 32.4 °F 29.87 in West 8 mph 8 mph 70% 0.00 in 0 W/m2
04:15 41.3 °F 32.6 °F 29.87 in WNW 8 mph 10 mph 71% 0.00 in 0 W/m2
04:20 41.2 °F 32.5 °F 29.87 in West 8 mph 8 mph 71% 0.00 in 0 W/m2
04:25 41 °F 32.3 °F 29.88 in WNW 9 mph 9 mph 71% 0.00 in 0 W/m2
04:30 40.8 °F 31.8 °F 29.88 in WNW 8 mph 12 mph 70% 0.00 in 0 W/m2
04:35 40.7 °F 32 °F 29.88 in WSW 7 mph 12 mph 71% 0.00 in 0 W/m2
04:40 40.4 °F 31 °F 29.89 in East 8 mph 8 mph 69% 0.00 in 0 W/m2
04:45 40.2 °F 30.1 °F 29.88 in WSW 9 mph 13 mph 67% 0.00 in 0 W/m2
04:50 39.9 °F 29.5 °F 29.89 in WSW 10 mph 17 mph 66% 0.00 in 0 W/m2
04:55 39.7 °F 29.3 °F 29.89 in WSW 10 mph 17 mph 66% 0.00 in 0 W/m2
05:00 39.5 °F 29.1 °F 29.89 in NW 10 mph 10 mph 66% 0.00 in 0 W/m2
05:05 39.3 °F 28.5 °F 29.89 in WNW 10 mph 10 mph 65% 0.00 in 0 W/m2
05:10 39.1 °F 28.7 °F 29.90 in WNW 9 mph 9 mph 66% 0.00 in 0 W/m2
05:15 38.9 °F 28.1 °F 29.90 in West 8 mph 9 mph 65% 0.00 in 0 W/m2
05:20 38.8 °F 28.4 °F 29.90 in WSW 8 mph 8 mph 66% 0.00 in 0 W/m2
05:25 38.7 °F 28.7 °F 29.90 in West 8 mph 9 mph 67% 0.00 in 0 W/m2
05:30 38.6 °F 28.2 °F 29.90 in NW 7 mph 7 mph 66% 0.00 in 0 W/m2
05:35 38.5 °F 28.5 °F 29.90 in WSW 7 mph 7 mph 67% 0.00 in 0 W/m2
05:40 38.4 °F 28.4 °F 29.90 in WNW 8 mph 9 mph 67% 0.00 in 0 W/m2
05:45 38.4 °F 28.4 °F 29.90 in WNW 9 mph 11 mph 67% 0.00 in 0 W/m2
05:50 38.3 °F 28.7 °F 29.90 in WSW 8 mph 11 mph 68% 0.00 in 0 W/m2
05:55 38.1 °F 28.1 °F 29.90 in SW 8 mph 11 mph 67% 0.00 in 0 W/m2
06:00 38 °F 27.6 °F 29.90 in NNW 8 mph 8 mph 66% 0.00 in 0 W/m2
06:05 38 °F 28 °F 29.89 in NW 8 mph 8 mph 67% 0.00 in 0 W/m2
06:10 37.9 °F 27.5 °F 29.89 in SW 9 mph 9 mph 66% 0.00 in 0 W/m2
06:15 37.8 °F 27.5 °F 29.90 in NW 9 mph 9 mph 66% 0.00 in 0 W/m2
06:20 37.8 °F 27.8 °F 29.89 in SW 8 mph 8 mph 67% 0.00 in 0 W/m2
06:25 37.7 °F 27.7 °F 29.90 in NW 7 mph 8 mph 67% 0.00 in 0 W/m2
06:30 37.7 °F 28.1 °F 29.90 in NNW 7 mph 7 mph 68% 0.00 in 0 W/m2
06:35 37.7 °F 27.7 °F 29.90 in West 7 mph 7 mph 67% 0.00 in 0 W/m2
06:40 37.7 °F 27.7 °F 29.90 in WNW 8 mph 10 mph 67% 0.00 in 0 W/m2
06:45 37.7 °F 27.7 °F 29.90 in WSW 8 mph 10 mph 67% 0.00 in 0 W/m2
06:50 37.7 °F 28.1 °F 29.90 in West 7 mph 7 mph 68% 0.00 in 0 W/m2
06:55 37.7 °F 28.1 °F 29.90 in West 7 mph 7 mph 68% 0.00 in 0 W/m2
07:00 37.8 °F 28.5 °F 29.90 in West 7 mph 7 mph 69% 0.00 in 0 W/m2
07:05 37.9 °F 28.6 °F 29.90 in SW 7 mph 7 mph 69% 0.00 in 0 W/m2
07:10 38 °F 29.1 °F 29.90 in West 6 mph 11 mph 70% 0.00 in 0 W/m2
07:15 38 °F 29.1 °F 29.90 in West 7 mph 11 mph 70% 0.00 in 0 W/m2
07:20 38 °F 29.1 °F 29.90 in ENE 8 mph 8 mph 70% 0.00 in 0 W/m2
07:25 38 °F 29.1 °F 29.90 in WSW 7 mph 17 mph 70% 0.00 in 0 W/m2
07:30 37.9 °F 28.3 °F 29.90 in West 7 mph 7 mph 68% 0.00 in 0 W/m2
07:35 37.9 °F 29 °F 29.91 in WSW 8 mph 8 mph 70% 0.00 in 0 W/m2
07:40 37.9 °F 29 °F 29.91 in SE 8 mph 8 mph 70% 0.00 in 0 W/m2
07:45 37.9 °F 29 °F 29.91 in WNW 7 mph 8 mph 70% 0.00 in 5 W/m2
07:50 37.9 °F 28.6 °F 29.91 in WSW 7 mph 9 mph 69% 0.00 in 7 W/m2
07:55 37.8 °F 28.2 °F 29.91 in SW 7 mph 9 mph 68% 0.00 in 9 W/m2
08:00 37.8 °F 28.5 °F 29.92 in WSW 8 mph 8 mph 69% 0.00 in 9 W/m2
08:05 37.7 °F 28.1 °F 29.92 in WNW 8 mph 8 mph 68% 0.00 in 7 W/m2
08:10 37.7 °F 28.1 °F 29.92 in West 8 mph 8 mph 68% 0.00 in 7 W/m2
08:15 37.7 °F 28.8 °F 29.92 in West 8 mph 8 mph 70% 0.00 in 9 W/m2
08:20 37.7 °F 28.4 °F 29.92 in WNW 8 mph 10 mph 69% 0.00 in 11 W/m2
08:25 37.7 °F 28.4 °F 29.92 in SW 7 mph 10 mph 69% 0.00 in 14 W/m2
08:30 37.6 °F 28.3 °F 29.92 in West 8 mph 12 mph 69% 0.00 in 23 W/m2
08:35 37.6 °F 27.3 °F 29.91 in WSW 8 mph 12 mph 66% 0.00 in 42 W/m2
08:40 37.5 °F 27.2 °F 29.92 in NW 9 mph 9 mph 66% 0.00 in 42 W/m2
08:45 37.5 °F 27.2 °F 29.92 in West 9 mph 15 mph 66% 0.00 in 58 W/m2
08:50 37.5 °F 26.8 °F 29.92 in WSW 9 mph 11 mph 65% 0.00 in 56 W/m2
08:55 37.6 °F 26.9 °F 29.92 in West 9 mph 11 mph 65% 0.00 in 58 W/m2
09:00 37.6 °F 26.9 °F 29.92 in WSW 9 mph 9 mph 65% 0.00 in 63 W/m2
09:05 37.7 °F 27 °F 29.92 in West 8 mph 10 mph 65% 0.00 in 76 W/m2
09:10 37.8 °F 27.5 °F 29.92 in West 7 mph 11 mph 66% 0.00 in 81 W/m2
09:15 37.8 °F 27.1 °F 29.92 in West 8 mph 11 mph 65% 0.00 in 83 W/m2
09:20 37.9 °F 27.2 °F 29.92 in WNW 7 mph 11 mph 65% 0.00 in 84 W/m2
09:25 37.9 °F 27.2 °F 29.92 in SSW 7 mph 11 mph 65% 0.00 in 81 W/m2
09:30 38 °F 27.3 °F 29.92 in West 8 mph 8 mph 65% 0.00 in 104 W/m2
09:35 38 °F 27.3 °F 29.92 in West 8 mph 9 mph 65% 0.00 in 102 W/m2
09:40 38 °F 26.5 °F 29.92 in WSW 8 mph 15 mph 63% 0.00 in 116 W/m2
09:45 38.1 °F 27.4 °F 29.93 in WNW 8 mph 15 mph 65% 0.00 in 100 W/m2
09:50 38.2 °F 26.7 °F 29.92 in West 8 mph 14 mph 63% 0.00 in 91 W/m2
09:55 38.2 °F 27.1 °F 29.92 in WSW 9 mph 14 mph 64% 0.00 in 97 W/m2
10:00 38.3 °F 27.9 °F 29.93 in WSW 9 mph 9 mph 66% 0.00 in 88 W/m2
10:05 38.4 °F 28 °F 29.93 in West 9 mph 11 mph 66% 0.00 in 72 W/m2
10:10 38.4 °F 28.4 °F 29.93 in SSW 9 mph 9 mph 67% 0.00 in 84 W/m2
10:15 38.4 °F 28 °F 29.93 in WSW 9 mph 9 mph 66% 0.00 in 116 W/m2
10:20 38.4 °F 28.4 °F 29.93 in WSW 8 mph 15 mph 67% 0.00 in 91 W/m2
10:25 38.4 °F 28.4 °F 29.93 in WSW 9 mph 15 mph 67% 0.00 in 83 W/m2
10:30 38.4 °F 28.8 °F 29.93 in SW 8 mph 8 mph 68% 0.00 in 132 W/m2
10:35 38.4 °F 28 °F 29.92 in SSW 7 mph 8 mph 66% 0.00 in 151 W/m2
10:40 38.4 °F 27.7 °F 29.92 in West 7 mph 10 mph 65% 0.00 in 132 W/m2
10:45 38.5 °F 28.1 °F 29.93 in WNW 7 mph 10 mph 66% 0.00 in 125 W/m2
10:50 38.6 °F 27.8 °F 29.93 in WSW 7 mph 7 mph 65% 0.00 in 121 W/m2
10:55 38.6 °F 28.2 °F 29.93 in WSW 6 mph 7 mph 66% 0.00 in 107 W/m2
11:00 38.7 °F 28.7 °F 29.93 in SSW 7 mph 7 mph 67% 0.00 in 105 W/m2
11:05 38.7 °F 28.7 °F 29.93 in WSW 7 mph 7 mph 67% 0.00 in 93 W/m2
11:10 38.7 °F 29.4 °F 29.92 in West 7 mph 7 mph 69% 0.00 in 90 W/m2
11:15 38.7 °F 29 °F 29.92 in SSW 7 mph 7 mph 68% 0.00 in 91 W/m2
11:20 38.7 °F 29.8 °F 29.92 in WSW 7 mph 12 mph 70% 0.00 in 83 W/m2
11:25 38.7 °F 29.8 °F 29.92 in SSW 7 mph 12 mph 70% 0.00 in 95 W/m2
11:30 38.7 °F 29.8 °F 29.92 in West 8 mph 8 mph 70% 0.00 in 90 W/m2
11:35 38.6 °F 28.9 °F 29.92 in WSW 9 mph 9 mph 68% 0.00 in 83 W/m2
11:40 38.7 °F 29.8 °F 29.92 in West 9 mph 13 mph 70% 0.00 in 84 W/m2
11:45 38.7 °F 29.8 °F 29.92 in SW 8 mph 13 mph 70% 0.00 in 74 W/m2
11:50 38.7 °F 30.1 °F 29.92 in SW 8 mph 12 mph 71% 0.00 in 67 W/m2
11:55 38.7 °F 30.1 °F 29.92 in SW 7 mph 12 mph 71% 0.00 in 74 W/m2
12:00 38.7 °F 29.8 °F 29.92 in WSW 8 mph 8 mph 70% 0.00 in 88 W/m2
12:05 38.8 °F 30.5 °F 29.92 in SW 8 mph 12 mph 72% 0.00 in 56 W/m2
12:10 38.9 °F 30.3 °F 29.92 in SW 8 mph 10 mph 71% 0.00 in 88 W/m2
12:15 38.9 °F 30.3 °F 29.92 in SW 8 mph 10 mph 71% 0.00 in 76 W/m2
12:20 38.8 °F 29.8 °F 29.92 in South 9 mph 9 mph 70% 0.00 in 81 W/m2
12:25 38.8 °F 29.5 °F 29.92 in WSW 8 mph 13 mph 69% 0.00 in 86 W/m2
12:30 38.8 °F 28.8 °F 29.92 in South 9 mph 9 mph 67% 0.00 in 70 W/m2
12:35 38.9 °F 29.2 °F 29.92 in West 10 mph 10 mph 68% 0.00 in 81 W/m2
12:40 38.9 °F 29.6 °F 29.91 in WSW 10 mph 10 mph 69% 0.00 in 93 W/m2
12:45 38.9 °F 29.2 °F 29.91 in WSW 10 mph 10 mph 68% 0.00 in 102 W/m2
12:50 38.9 °F 29.9 °F 29.92 in SSE 9 mph 9 mph 70% 0.00 in 62 W/m2
12:55 38.9 °F 29.9 °F 29.91 in West 8 mph 9 mph 70% 0.00 in 65 W/m2
13:00 38.9 °F 29.9 °F 29.92 in WSW 8 mph 8 mph 70% 0.00 in 83 W/m2
13:05 38.8 °F 29.1 °F 29.92 in WNW 9 mph 9 mph 68% 0.00 in 111 W/m2
13:10 38.7 °F 29.4 °F 29.92 in WSW 8 mph 8 mph 69% 0.00 in 109 W/m2
13:15 38.6 °F 28.6 °F 29.92 in WNW 10 mph 10 mph 67% 0.00 in 114 W/m2
13:20 38.7 °F 28.7 °F 29.92 in SW 11 mph 11 mph 67% 0.00 in 160 W/m2
13:25 38.9 °F 27.8 °F 29.92 in SW 10 mph 13 mph 64% 0.00 in 202 W/m2
13:30 38.9 °F 26.6 °F 29.92 in WSW 10 mph 16 mph 61% 0.00 in 179 W/m2
13:35 38.9 °F 27 °F 29.92 in NNW 9 mph 16 mph 62% 0.00 in 183 W/m2
13:40 38.8 °F 26.9 °F 29.92 in WSW 10 mph 11 mph 62% 0.00 in 181 W/m2
13:45 38.8 °F 26.5 °F 29.92 in WNW 10 mph 11 mph 61% 0.00 in 178 W/m2
13:50 38.9 °F 27.8 °F 29.92 in WNW 8 mph 9 mph 64% 0.00 in 165 W/m2
13:55 38.7 °F 27.2 °F 29.92 in SW 8 mph 11 mph 63% 0.00 in 139 W/m2
14:00 38.7 °F 27.2 °F 29.92 in West 9 mph 11 mph 63% 0.00 in 125 W/m2
14:05 38.6 °F 27.5 °F 29.92 in WSW 9 mph 16 mph 64% 0.00 in 77 W/m2
14:10 38.6 °F 28.2 °F 29.93 in West 9 mph 11 mph 66% 0.00 in 95 W/m2
14:15 38.5 °F 27.7 °F 29.93 in WNW 10 mph 11 mph 65% 0.00 in 98 W/m2
14:20 38.4 °F 27.3 °F 29.93 in SSW 9 mph 9 mph 64% 0.00 in 91 W/m2
14:25 38.3 °F 27.2 °F 29.93 in NNW 9 mph 9 mph 64% 0.00 in 88 W/m2
14:30 38.2 °F 27.1 °F 29.93 in West 8 mph 8 mph 64% 0.00 in 63 W/m2
14:35 38 °F 26.9 °F 29.93 in SSW 7 mph 8 mph 64% 0.00 in 56 W/m2
14:40 38 °F 26.9 °F 29.94 in WSW 8 mph 8 mph 64% 0.00 in 37 W/m2
14:45 37.9 °F 27.2 °F 29.94 in West 8 mph 8 mph 65% 0.00 in 32 W/m2
14:50 37.7 °F 26.6 °F 29.94 in WSW 8 mph 19 mph 64% 0.00 in 35 W/m2
14:55 37.7 °F 26.6 °F 29.94 in West 9 mph 19 mph 64% 0.00 in 33 W/m2
15:00 37.5 °F 26.8 °F 29.94 in WNW 9 mph 11 mph 65% 0.00 in 30 W/m2
15:05 37.4 °F 27.1 °F 29.94 in WNW 9 mph 11 mph 66% 0.00 in 28 W/m2
15:10 37.3 °F 26.6 °F 29.95 in NW 8 mph 11 mph 65% 0.00 in 23 W/m2
15:15 37.2 °F 26.9 °F 29.95 in SW 8 mph 15 mph 66% 0.00 in 21 W/m2
15:20 37 °F 27.1 °F 29.96 in WNW 8 mph 16 mph 67% 0.00 in 19 W/m2
15:25 36.9 °F 27.7 °F 29.96 in WNW 9 mph 16 mph 69% 0.00 in 14 W/m2
15:30 36.5 °F 28.3 °F 29.96 in WNW 9 mph 13 mph 72% 0.00 in 14 W/m2
15:35 36.3 °F 28.5 °F 29.97 in WNW 8 mph 17 mph 73% 0.00 in 14 W/m2
15:40 36 °F 28.2 °F 29.97 in WNW 8 mph 8 mph 73% 0.00 in 18 W/m2
15:45 35.7 °F 27.9 °F 29.97 in NNW 8 mph 8 mph 73% 0.00 in 19 W/m2
15:50 35.6 °F 28.1 °F 29.98 in North 7 mph 10 mph 74% 0.00 in 21 W/m2
15:55 35.5 °F 28 °F 29.98 in WSW 7 mph 10 mph 74% 0.00 in 18 W/m2
16:00 35.5 °F 27.7 °F 29.98 in SSW 6 mph 6 mph 73% 0.00 in 19 W/m2
16:05 35.4 °F 28.6 °F 29.99 in West 6 mph 6 mph 76% 0.00 in 16 W/m2
16:10 35.3 °F 28.8 °F 29.99 in South 7 mph 7 mph 77% 0.00 in 21 W/m2
16:15 35.1 °F 28.9 °F 29.99 in WNW 7 mph 9 mph 78% 0.00 in 18 W/m2
16:20 35 °F 27.9 °F 29.99 in NW 7 mph 7 mph 75% 0.00 in 19 W/m2
16:25 35.1 °F 28 °F 29.99 in SSW 6 mph 7 mph 75% 0.00 in 19 W/m2
16:30 35.1 °F 27.6 °F 30.00 in West 6 mph 11 mph 74% 0.00 in 18 W/m2
16:35 35.2 °F 27.1 °F 30.00 in West 7 mph 11 mph 72% 0.00 in 14 W/m2
16:40 35.3 °F 27.5 °F 30.00 in West 7 mph 7 mph 73% 0.00 in 12 W/m2
16:45 35.4 °F 27.6 °F 30.00 in West 6 mph 7 mph 73% 0.00 in 9 W/m2
16:50 35.4 °F 27.3 °F 30.00 in West 6 mph 6 mph 72% 0.00 in 7 W/m2
16:55 35.4 °F 27.3 °F 30.00 in SE 7 mph 7 mph 72% 0.00 in 5 W/m2
17:00 35.5 °F 27 °F 30.00 in South 7 mph 7 mph 71% 0.00 in 0 W/m2
17:05 35.5 °F 27 °F 30.01 in West 7 mph 9 mph 71% 0.00 in 0 W/m2
17:10 35.5 °F 26.7 °F 30.01 in NW 8 mph 8 mph 70% 0.00 in 0 W/m2
17:15 35.5 °F 26.3 °F 30.01 in NW 9 mph 9 mph 69% 0.00 in 0 W/m2
17:20 35.5 °F 26.3 °F 30.01 in West 9 mph 11 mph 69% 0.00 in 0 W/m2
17:25 35.5 °F 26.7 °F 30.02 in West 9 mph 11 mph 70% 0.00 in 0 W/m2
17:30 35.5 °F 26.7 °F 30.02 in West 9 mph 9 mph 70% 0.00 in 0 W/m2
17:35 35.5 °F 27 °F 30.02 in NW 8 mph 9 mph 71% 0.00 in 0 W/m2
17:40 35.4 °F 26.9 °F 30.03 in WSW 8 mph 8 mph 71% 0.00 in 0 W/m2
17:45 35.4 °F 26.6 °F 30.03 in SSW 8 mph 8 mph 70% 0.00 in 0 W/m2
17:50 35.3 °F 27.5 °F 30.03 in WSW 9 mph 9 mph 73% 0.00 in 0 W/m2
17:55 35.3 °F 27.8 °F 30.04 in NW 10 mph 10 mph 74% 0.00 in 0 W/m2
18:00 35.1 °F 27.6 °F 30.04 in WSW 9 mph 16 mph 74% 0.00 in 0 W/m2
18:05 34.9 °F 27.1 °F 30.04 in WSW 9 mph 16 mph 73% 0.00 in 0 W/m2
18:10 34.8 °F 27 °F 30.05 in West 8 mph 13 mph 73% 0.00 in 0 W/m2
18:15 34.8 °F 27 °F 30.05 in NW 8 mph 13 mph 73% 0.00 in 0 W/m2
18:20 34.7 °F 27.3 °F 30.05 in West 9 mph 10 mph 74% 0.00 in 0 W/m2
18:25 34.8 °F 27.7 °F 30.05 in WNW 8 mph 10 mph 75% 0.00 in 0 W/m2
18:30 34.7 °F 27.6 °F 30.06 in West 9 mph 9 mph 75% 0.00 in 0 W/m2
Sand Point, Michigan, USA
Compliments of Weather Underground - 2 mb